Regional Weather Roundup
Issued by NWS

Home | Current Version | Previous Version | Text Only | Print | Product List | Glossary On
Versions: 1 2 3 4 5 6 7 8 9 10 11 12 13 14 15 16 17 18 19 20 21 22 23 24 25 26 27 28 29 30 31 32 33 34 35 36 37 38 39 40 41 42 43 44 45 46 47 48 49 50
000
ASUS43 KLMK 301210
RWRKY
KENTUCKY REGIONAL WEATHER ROUNDUP
NATIONAL WEATHER SERVICE LOUISVILLE KY
800 AM EDT THU JUL 30 2015

NOTE "FAIR" INDICATES FEW OR NO CLOUDS BELOW 12,000 FEET
WITH NO SIGNIFICANT WEATHER AND/OR OBSTRUCTIONS TO VISIBILITY.

KYZ001>023-026-027-061>063-070>075-301300-
WESTERN AND SOUTH CENTRAL KENTUCKY

CITY           SKY/WX    TMP DP  RH WIND       PRES   REMARKS
PADUCAH          N/A     71  63  75 N7        30.11R
HENDERSON      SUNNY     68  63  83 CALM      30.10R
OWENSBORO      SUNNY     71  64  78 N6        30.10R
HOPKINSVILLE   MOSUNNY   70  64  83 N6        30.09R
BOWLING GREEN  SUNNY     76  67  73 VRB6      30.09R
GLASGOW        PTSUNNY  N/A N/A N/A N6        30.08R
$$

KYZ024-025-028>034-038-045-046-053-301300-
NORTH CENTRAL KENTUCKY

CITY           SKY/WX    TMP DP  RH WIND       PRES   REMARKS
LOUISVILLE/SDF MOSUNNY   74  60  61 N9        30.07R
LOUISVILLE/LOU SUNNY     72  62  71 N5        30.08R
FORT KNOX      MOSUNNY   69  63  79 NW8       30.08R
$$

KYZ035>037-039>044-047>052-055>060-089>105-301300-
NORTHEAST KENTUCKY

CITY           SKY/WX    TMP DP  RH WIND       PRES   REMARKS
LEXINGTON      SUNNY     70  63  78 NW5       30.08R
COVINGTON      PTSUNNY   70  61  73 NW6       30.07R
FRANKFORT      SUNNY     69  63  81 NW5       30.07R
$$

KYZ054-064>069-076>088-106>120-301300-
SOUTHEAST KENTUCKY

CITY           SKY/WX    TMP DP  RH WIND       PRES   REMARKS
JACKSON        CLOUDY    72  69  90 NW6       30.06R
LONDON         CLOUDY    74  67  78 NW7       30.06S
SOMERSET       MOSUNNY   72  72 100 CALM      30.07S
MIDDLESBORO    CLOUDY    75  71  88 E5        30.06R
MONTICELLO     PTSUNNY   74  73  96 CALM      30.10R
$$




USA.gov is the U.S. government's official web portal to all federal, state and local government web resources and services.